Regional Weather Roundup
Issued by NWS

Home | Current Version | Previous Version | Text Only | Print | Product List | Glossary On
Versions: 1 2 3 4 5 6 7 8 9 10 11 12 13 14 15 16 17 18 19 20 21 22 23 24 25 26 27 28 29 30 31 32 33 34 35 36 37 38 39 40 41 42 43 44 45 46 47 48 49 50
000
ASUS45 KBOU 121810
RWRCO

WEATHER ROUNDUP FOR COLORADO
NATIONAL WEATHER SERVICE DENVER/BOULDER CO
1200 PM MDT WED AUG 12 2020

NOTE: "FAIR" INDICATES FEW OR NO CLOUDS BELOW 12000 FEET WITH NO
SIGNIFICANT WEATHER AND/OR OBSTRUCTIONS TO VISIBILITY.

COZ001>005-013-030-031-121900-
...NORTHWEST COLORADO...

CITY           SKY/WX    TMP DP  RH WIND       PRES   REMARKS
CRAIG          FAIR      85  28  12 MISG      30.17F
HAYDEN         FAIR      80  29  15 VRB5      30.21F
MEEKER         PTSUNNY   82  28  14 W9        30.18S
RANGELY        FAIR      89  27  11 W14       30.10F
RABBIT EARS PA FAIR      61  30  31 W5        30.52S
STEAMBOAT SPGS PTSUNNY   76  31  19 CALM      30.22F
WALDEN         NOT AVBL
$$

COZ006>008-011-121900-
...WEST CENTRAL VALLEYS...

CITY           SKY/WX    TMP DP  RH WIND       PRES   REMARKS
GRAND JUNCTION FAIR      89  32  13 W13       30.09S
MONTROSE       FAIR      86  35  16 W12       30.20S
EAGLE          FAIR      81  32  17 W13G20    30.23F
RIFLE          FAIR      84  32  15 VRB5      30.14F
DELTA          FAIR      90  34  13 S8        30.14F
NUCLA          NOT AVBL
$$

COZ017>023-064>068-121900-
...SOUTHWEST COLORADO...

CITY           SKY/WX    TMP DP  RH WIND       PRES   REMARKS
DURANGO        FAIR      83  34  17 W10       30.29S
CORTEZ         FAIR      87  39  18 NW15G25   30.24S
PAGOSA SPRINGS FAIR      80  33  18 SW17G23   30.36F
TELLURIDE      PTSUNNY   72  30  21 W14G22    30.48S
WOLF CREEK PAS PTSUNNY   57  32  38 SW18G28   30.72S
$$

COZ009-010-012-014-032>034-037-058>063-121900-
...CENTRAL COLORADO...

CITY           SKY/WX    TMP DP  RH WIND       PRES   REMARKS
ASPEN          FAIR      80  24  12 W6G21     30.31F
BUENA VISTA    FAIR      79  22  12 W12G29    30.32F
COPPER MTN     PTSUNNY   59  30  33 W16       30.65S
BERTHOUD PASS  FAIR      52  36  54 W24G33    30.65F
DAKOTA HILL    MOCLDY    61  23  23 NW13G23   30.54F
COTTONWOOD PAS PTSUNNY   72  21  15 W7G25     30.48F
GUNNISON       FAIR      77  38  24 SW10      30.33F
GRANBY         FAIR      77  28  16 W14       30.34F
KREMMLING      FAIR      79  32  18 SW15G21   30.29F
LEADVILLE      LGT RAIN  60  33  36 SW15G25   30.50F
MONARCH PASS   FAIR      57  28  33 W26G44    30.76S
SALIDA         FAIR      83  25  12 W16G24    30.37F
SUNLIGHT       PTSUNNY   63  28  27 SW12G18   30.57S
WILKERSON PASS PTSUNNY   64  23  20 SW9G24    30.61F
$$

COZ069>075-121900-
...SAN LUIS VALLEY/SANGRE DE CRISTO MOUNTAINS...

CITY           SKY/WX    TMP DP  RH WIND       PRES   REMARKS
ALAMOSA        FAIR      80  30  16 NE5       30.32F
DEL NORTE      FAIR      80  31  17 SW15G21   30.35F
LA VETA PASS   FAIR      66  28  24 W10G22    30.52F
SAGUACHE       FAIR      77  32  19 SE6       30.34F
$$

COZ035-036-038>040-121900-
...NORTHERN COLORADO FRONT RANGE...

CITY           SKY/WX    TMP DP  RH WIND       PRES   REMARKS
DENVER INTL AP FAIR      88  43  20 SW6       30.09F
AURORA         MOSUNNY   87  37  17 VRB3      30.11F
WATKINS        NOT AVBL
ERIE           FAIR      82  46  28 CALM      30.07F
BOULDER        FAIR      77  52  41 CALM      30.09F
CENTENNIAL     FAIR      88  37  16 VRB6      30.12F
BROOMFIELD     NOT AVBL
FORT COLLINS   FAIR      78  54  43 CALM      30.08F
LONGMONT       FAIR      82  55  39 NE3       30.09F
$$

COZ041-046-047-076>085-087-088-121900-
...PIKES PEAK/PALMER DIVIDE AND SOUTHERN FOOTHILLS...

CITY           SKY/WX    TMP DP  RH WIND       PRES   REMARKS
COLO. SPRINGS  FAIR      76  57  51 SW9       30.21F
A. F. ACADEMY  PTSUNNY   75  56  50 S10       30.20F
SCHRIEVER AFB  NOT AVBL
CHEYENNE MTN   FAIR      75  56  51 SE14G21   30.20F
ELLICOTT       FAIR      75  54  47 SW6       30.21F
FALCON         FAIR      75  51  42 SW8       30.26F
FORT CARSON    FAIR      78  56  46 SE7       30.16F
LIMON          FAIR      80  55  42 SW13G20   30.13F
MONUMENT HILL  FAIR      79  39  24 SW7       30.25F
CANON CITY     FAIR      81  57  44 E7        30.15F
WALSENBURG     NOT AVBL
TRINIDAD       FAIR      78  55  44 VRB3      30.19F
$$

COZ042>045-048>051-090-091-121900-
...NORTHEAST COLORADO...

CITY           SKY/WX    TMP DP  RH WIND       PRES   REMARKS
GREELEY        FAIR      82  58  43 VRB5      30.06F
AKRON          FAIR      85  55  35 SW15G24   30.06F
BURLINGTON     FAIR      82  58  43 SW12      30.06F
WRAY           FAIR      86  52  30 SW16      30.03S
YUMA           FAIR      84  52  32 S17G23    30.04F
STERLING       FAIR      84  55  37 S15G22    30.01F
HOLYOKE        FAIR      84  55  37 S10       30.04S
FORT MORGAN    FAIR      85  51  30 S12G21    30.05F
$$

COZ086-089-092>099-121900-
...SOUTHEAST COLORADO...

CITY           SKY/WX    TMP DP  RH WIND       PRES   REMARKS
PUEBLO         FAIR      80  59  48 VRB5      30.11F
LA JUNTA       FAIR      82  59  45 MISG      30.08F
LAMAR          FAIR      84  61  45 W9G20     30.02F
SPRINGFIELD      N/A     83  61  47 NW12G18   30.07F
$$



USA.gov is the U.S. government's official web portal to all federal, state and local government web resources and services.